STARLINK-32806 (62735 NORAD) Tracking and Keplerian Element Data

This shows tracking and keplerian element data for the satellite.

Feedback or suggestion? Click here.




ElementValue
Catalog62735
NameSTARLINK-32806
Epoch Orbit221
Epoch Day35.25001157
Epoch Year2025
RAAN253.8952
Inclination42.9996
Eccentricity0.0002014
Argument of Perigee267.9697
Mean Anonmoly89.7232
Mean Motion15.64339311
Decay Rate-0.01476873
L11 62735U 25014A 25035.25001157 -.01476873 00000+0 -16762-1 0 9991
L22 62735 42.9996 253.8952 0002014 267.9697 89.7232 15.64339311 2213



Live tracking and technical data element details for STARLINK-32806 (NORAD 62735). STARLINK-32806 can be tracked NOW for your location showing map with azimuth and elevation plus other details from your city location.







IsCatalogInMostPopularTable: catalog: 62735, numindb: 173
Update: records affected: 1



GetName: 62735 STARLINK-32806

Hit Count: updated at: Mon, 08 Dec 2025 09:45:26 GMT